Location: Unspecified
(0.0000°N, 0.0000°E)
Time: 15:27:55
(UTC+00:00)

PAYLOAD G - Visible Passes

Search period start: 31 May 2023 00:00
Search period end: 10 June 2023 00:00
Orbit: 809 x 823 km, 98.7° (Epoch: 30 May)

Date Brightness Start Highest point End Pass type
(mag) Time Alt. Az. Time Alt. Az. Time Alt. Az.
31 May ? 04:40:58 10° E 04:42:13 11° ESE 04:43:28 10° ESE visible
31 May ? 18:57:45 10° SW 19:00:54 16° WSW 19:04:04 10° WNW visible
01 Jun ? 18:34:32 10° SSW 18:39:06 29° WSW 18:43:39 10° NW visible
03 Jun ? 05:11:53 10° NE 05:16:23 29° ESE 05:20:55 10° SSE visible
04 Jun ? 04:51:27 10° ENE 04:54:34 16° ESE 04:57:42 10° SE visible
04 Jun ? 19:12:00 10° WSW 19:13:16 11° WSW 19:14:32 10° W visible
05 Jun ? 18:47:34 10° SSW 18:51:28 21° WSW 18:55:21 10° NW visible
06 Jun ? 18:24:44 10° S 18:29:39 37° WSW 18:34:32 10° NW visible
07 Jun ? 05:23:49 10° NNE 05:28:45 40° ESE 05:33:43 10° S visible
08 Jun ? 05:02:52 10° NE 05:06:55 22° ESE 05:10:59 10° SSE visible
09 Jun ? 04:43:11 10° E 04:45:06 12° ESE 04:47:03 10° SE visible
09 Jun ? 19:00:59 10° SW 19:03:49 15° WSW 19:06:39 10° WNW visible
